Wind_Speed
2 2 3 4 6 7 5 3 3 5 6 6 6 7 8 8 8 8 9 9 9 8 7 7 7 7 6 5 5 5 4 4 3 2 2 1 1 0 1 1 1 1 1 1 2 2 3 3 2
3 3 3 3 4 4 2 4 7 6 7 7 6 7 8 7 8 8 8 9 9 8 7 7 7 7 7 6 5 4 4 4 4 3 2 1 1 1 1 1 1 1 1 1 1 2 2 2 1
4 4 3 2 3 2 4 7 8 7 8 8 8 7 8 8 8 8 8 9 9 8 7 7 7 7 7 7 6 5 4 4 4 3 2 2 1 1 1 1 0 1 1 1 1 2 2 2 2
5 4 3 2 2 2 7 8 8 8 8 8 8 8 8 7 7 7 8 9 9 8 7 7 7 7 7 7 7 5 5 4 4 3 2 2 2 2 1 1 1 1 1 2 2 2 2 2 2
5 4 3 2 2 5 7 9 9 9 9 8 8 8 8 7 7 7 8 9 8 8 8 7 7 7 7 7 7 6 5 5 4 3 3 2 2 2 2 1 2 1 1 2 2 2 1 2 2
7 7 5 4 5 7 10 10 9 9 9 8 8 7 8 7 7 8 8 9 9 8 8 8 7 7 7 7 7 6 6 5 4 3 3 3 2 2 2 2 2 2 1 2 2 2 2 2 1
8 8 7 6 8 9 12 11 10 10 9 9 8 8 9 8 8 8 8 8 8 8 9 9 8 8 7 7 6 6 6 6 5 4 3 3 3 2 2 2 2 2 2 2 2 2 2 2 2
10 9 8 7 10 11 12 12 11 11 10 8 9 9 9 9 9 8 8 8 8 9 9 9 8 8 7 7 7 6 6 6 5 4 4 3 3 2 2 2 3 2 2 2 2 2 2 2 2
11 11 10 8 12 14 12 12 12 11 10 9 9 10 10 9 9 9 9 8 8 8 9 9 9 8 8 7 7 7 6 6 5 5 4 3 3 3 3 4 3 3 3 2 2 2 2 3 3
12 12 11 11 13 14 13 13 13 12 11 10 10 10 10 10 9 9 9 9 8 8 8 9 9 9 8 8 7 7 6 6 6 5 4 4 4 4 4 4 4 4 4 3 3 3 3 3 3
12 12 13 13 15 15 15 13 12 11 13 11 10 11 10 10 10 9 10 10 9 9 8 8 8 9 8 8 7 7 7 6 6 6 5 5 5 5 5 5 5 4 5 5 4 4 4 4 4
14 15 16 16 17 15 14 14 13 13 14 13 12 13 11 11 11 10 10 10 10 10 9 9 9 9 9 8 8 8 7 7 6 6 6 6 6 6 6 5 6 5 6 6 5 5 5 5 6
15 15 17 18 18 16 15 14 15 15 15 14 14 13 13 12 12 10 11 11 10 10 10 10 10 10 9 9 9 8 8 8 8 7 7 6 6 6 6 7 7 6 6 6 6 6 6 6 5
16 16 17 17 17 17 15 15 16 15 15 15 15 14 13 14 13 12 11 11 11 10 9 10 10 10 10 10 10 10 10 10 10 9 9 8 7 7 7 7 7 7 7 7 6 6 6 6 5
16 17 17 17 17 17 16 15 15 16 15 15 15 15 14 15 15 13 12 12 11 10 10 10 11 11 11 11 11 11 10 10 10 10 10 9 8 8 7 8 7 7 8 8 7 7 7 6 7
16 16 16 15 16 17 15 14 16 16 16 16 16 15 15 16 15 13 13 11 11 11 11 11 11 11 11 12 12 12 11 11 11 10 10 10 10 9 8 8 8 8 8 7 8 8 8 8 8
13 14 14 15 16 16 15 16 17 16 18 17 16 16 15 15 15 14 13 12 11 11 11 11 11 12 12 12 13 13 13 12 11 11 11 10 10 10 10 9 9 8 8 8 8 8 8 9 9
14 14 15 16 16 17 17 18 17 18 18 18 17 16 16 16 16 15 14 13 12 12 12 12 12 12 12 12 13 14 14 13 12 11 11 11 11 11 11 10 10 9 9 9 9 9 9 9 9
17 17 17 16 17 19 19 19 17 19 20 19 17 17 16 16 16 16 16 14 13 13 12 12 12 13 13 13 14 14 14 13 12 12 12 12 11 11 11 10 10 10 10 10 10 10 10 10 10
18 18 17 17 18 19 19 19 19 20 21 19 19 18 18 17 17 17 17 15 15 14 14 13 14 15 15 15 15 15 15 14 13 12 12 11 11 11 11 11 10 10 11 11 11 10 10 9 9
20 19 18 18 17 19 19 19 20 21 21 22 21 19 19 18 18 17 17 17 16 15 15 14 15 15 16 15 16 16 15 14 13 13 12 12 11 11 11 12 11 11 11 12 12 11 11 10 11
21 20 19 19 18 19 19 21 21 22 22 22 21 20 21 19 18 17 17 17 17 16 15 15 16 16 16 15 15 15 14 14 14 13 13 13 12 12 12 12 12 11 11 11 11 11 11 11 11
21 20 20 20 20 20 19 21 21 24 24 23 22 21 20 20 18 17 17 18 18 17 17 16 16 16 16 15 15 15 14 14 14 13 13 13 14 13 12 13 13 12 11 11 10 11 11 10 10
21 20 20 19 20 22 19 21 24 25 24 23 22 21 21 21 19 18 18 18 19 18 17 16 16 16 16 16 15 15 14 14 14 14 14 15 15 14 13 12 12 11 11 11 10 10 10 10 10
21 20 19 20 21 21 19 21 23 21 21 23 22 21 20 20 20 20 19 19 19 18 18 16 16 17 17 17 16 15 14 14 14 14 15 15 15 14 13 13 12 11 11 11 11 11 12 12 12
21 21 21 20 19 18 17 21 21 21 21 22 22 22 21 21 21 20 19 19 19 19 19 18 16 16 17 16 16 15 15 15 15 15 15 15 14 14 14 13 13 12 11 12 12 12 13 13 13
21 21 20 21 20 19 19 19 20 22 22 23 24 23 23 23 22 21 20 20 19 19 18 19 17 16 16 16 16 16 16 16 15 15 15 15 14 14 14 14 14 14 13 13 13 13 13 14 14
22 21 20 21 21 20 19 20 22 22 21 23 24 24 25 24 22 21 20 20 19 19 19 18 18 17 17 17 17 16 16 16 16 16 15 15 14 15 15 14 14 14 14 14 14 14 15 15 15
23 23 23 22 21 21 20 20 22 23 24 22 23 25 25 24 24 22 21 20 20 20 20 19 19 18 18 18 18 18 17 18 18 17 17 17 17 16 15 15 15 15 15 15 15 15 16 16 17
24 23 24 25 25 24 22 21 22 23 22 23 23 24 25 24 25 25 23 22 21 22 21 21 21 20 20 20 19 19 19 19 18 18 18 18 18 17 17 16 16 16 15 15 16 17 17 17 18
Wind_Direction
148 114 97 97 79 75 65 359 299 305 323 334 341 339 350 353 355 354 354 360 6 7 6 7 9 9 6 3 356 347 349 354 355 348 341 1 3 354 7 346 320 290 255 200 187 179 189 194 193
172 154 133 95 70 56 29 289 283 301 317 327 332 335 338 345 353 354 354 357 2 1 0 357 360 4 3 1 359 352 346 350 349 342 334 350 14 10 359 352 314 252 223 177 199 172 179 192 184
193 180 143 104 80 41 286 283 286 301 311 320 326 330 334 342 348 350 352 351 358 356 354 352 352 357 2 1 354 350 345 340 334 328 320 314 320 350 357 360 45 204 199 192 194 176 179 188 180
199 184 164 166 97 258 276 278 285 296 309 318 321 326 330 334 340 347 349 350 355 354 348 348 348 352 357 357 356 351 348 341 333 329 319 311 312 328 337 323 322 307 218 214 215 168 154 188 209
199 182 210 200 215 255 270 273 282 291 300 313 317 323 324 329 331 337 342 346 348 350 345 344 342 346 350 349 348 348 344 337 330 321 312 304 293 297 308 310 307 304 252 222 182 179 164 199 219
203 194 212 212 233 258 266 272 276 282 294 304 308 316 318 322 326 330 335 339 343 347 345 341 338 339 340 340 339 343 344 340 329 319 315 308 294 285 282 299 299 288 275 223 205 201 216 232 245
213 212 201 207 237 252 262 267 274 275 286 295 302 311 317 317 321 324 329 333 336 341 341 338 334 334 334 336 337 340 340 339 332 323 320 322 319 293 284 297 293 288 280 249 219 222 226 238 249
213 217 211 211 242 252 262 269 273 275 278 291 295 299 304 314 318 319 323 328 330 334 336 334 331 329 331 330 326 331 340 339 335 328 324 317 316 301 284 285 288 286 284 264 240 243 261 256 250
218 217 218 218 239 249 258 264 271 274 279 285 289 295 302 310 311 316 321 323 324 327 333 334 330 326 327 326 323 326 329 333 332 330 328 318 310 299 286 284 292 290 287 275 257 254 260 265 264
220 219 220 224 235 245 252 258 268 275 274 275 285 294 298 303 306 311 316 321 319 323 327 332 330 327 325 324 322 322 325 324 323 323 323 315 310 306 300 295 291 283 277 273 274 272 278 280 271
224 225 225 230 238 242 248 255 264 271 270 269 273 281 283 296 304 307 312 317 317 321 322 330 328 327 326 326 324 324 324 321 318 318 317 312 310 307 303 300 298 286 277 272 269 273 274 282 284
227 229 230 237 242 240 246 252 255 257 262 271 271 273 283 292 300 307 309 311 314 317 319 322 323 327 326 324 323 323 324 321 317 316 314 308 303 303 301 299 299 289 280 276 276 274 275 285 285
232 237 239 240 245 244 247 253 257 260 263 267 275 278 281 286 292 298 300 305 310 314 314 313 319 324 326 325 323 322 322 320 316 315 314 307 301 301 302 301 295 289 282 276 277 278 278 280 283
234 239 245 249 252 252 254 255 258 261 263 268 274 275 274 282 286 288 293 298 301 307 310 312 316 322 324 322 321 319 320 319 316 316 316 311 305 298 297 300 295 288 283 281 278 279 281 283 279
236 241 246 251 253 256 254 254 259 262 265 267 268 269 269 277 281 285 286 288 292 299 304 308 312 317 319 321 320 317 318 317 319 316 314 313 309 303 296 292 291 287 284 281 280 280 282 281 279
238 243 252 254 256 258 256 253 258 264 266 265 266 267 271 274 277 282 285 284 288 293 297 303 308 312 313 315 316 315 312 312 316 319 315 311 305 299 295 291 288 287 287 283 279 278 278 279 278
242 248 254 256 256 259 257 254 256 258 264 265 265 266 270 273 276 280 284 285 291 293 295 301 305 307 310 312 314 314 311 308 312 312 312 310 305 297 294 293 290 287 285 283 281 282 279 279 275
234 245 251 251 251 254 255 256 253 255 256 264 268 268 268 272 274 277 280 285 290 290 292 297 300 305 306 309 313 313 313 309 308 308 306 306 303 301 297 293 293 287 281 280 282 281 280 280 277
233 238 244 247 248 253 255 254 253 257 259 258 264 268 267 270 273 273 275 281 284 287 290 291 295 300 302 306 308 310 311 310 307 304 305 307 303 300 299 294 291 286 280 279 280 279 280 281 281
241 243 244 242 247 255 257 254 247 253 262 264 266 268 269 270 270 270 272 274 279 285 285 287 290 296 298 301 304 306 306 305 308 305 304 306 302 299 297 293 289 287 283 280 278 276 279 280 279
243 246 244 244 248 257 260 255 250 252 261 267 265 267 268 268 269 270 271 273 277 280 281 282 288 294 298 300 302 304 304 303 306 305 302 302 302 300 295 291 288 285 282 279 277 278 278 277 277
243 246 246 247 248 251 254 257 261 260 259 264 266 267 267 267 268 269 269 272 275 276 278 281 285 290 294 297 301 302 304 303 304 304 299 295 297 297 291 286 284 282 280 280 279 279 280 276 278
244 245 245 245 246 250 250 253 255 258 257 256 259 264 268 267 268 268 270 271 273 274 273 277 283 287 290 292 295 298 301 301 301 303 299 297 296 297 292 285 283 279 276 277 278 279 279 277 278
245 246 248 247 249 251 249 250 253 252 257 255 255 264 267 267 267 266 267 268 270 273 271 274 280 283 285 285 287 294 297 299 300 302 302 300 301 302 300 291 287 285 280 277 277 279 282 279 280
244 243 244 248 249 254 253 250 251 252 254 257 259 263 266 265 266 267 264 266 266 268 270 271 274 277 281 284 288 290 293 296 298 301 303 302 302 299 298 295 289 285 280 276 277 279 281 283 282
244 242 244 249 253 258 256 252 255 251 248 250 256 259 264 265 264 264 266 268 269 269 267 267 268 272 277 282 286 289 291 294 296 297 300 300 302 300 295 293 288 285 280 276 276 279 280 283 282
243 242 242 249 251 255 255 256 259 257 250 250 253 254 258 262 264 262 259 264 268 269 266 268 267 269 275 280 283 286 288 291 295 297 297 297 298 299 298 293 288 283 281 280 279 278 281 281 282
248 244 242 240 244 245 253 260 261 257 252 253 255 253 254 257 262 264 260 261 263 267 265 265 264 265 272 277 280 282 285 289 292 292 296 294 295 297 301 295 289 285 282 280 279 278 281 284 283
250 245 242 241 240 244 248 252 258 257 252 252 255 253 255 259 262 264 262 263 265 264 266 266 264 265 269 273 277 280 282 284 288 290 292 291 291 293 297 295 290 287 285 281 280 279 280 281 282
247 243 242 241 238 237 244 251 257 258 255 254 255 255 258 260 260 261 261 261 264 265 265 266 265 267 268 270 273 276 280 283 285 287 289 289 289 291 292 294 289 285 286 282 281 282 282 283 282
Height
5902 5903 5903 5904 5905 5905 5905 5905 5904 5903 5902 5902 5901 5899 5898 5897 5896 5897 5893 5890 5889 5888 5887 5886 5885 5884 5883 5882 5881 5880 5880 5879 5878 5877 5876 5876 5875 5875 5875 5874 5874 5873 5873 5873 5874 5874 5875 5875 5875
5902 5903 5904 5905 5905 5905 5906 5906 5904 5903 5903 5902 5900 5899 5898 5896 5895 5894 5892 5891 5890 5889 5888 5887 5885 5884 5883 5882 5881 5880 5880 5879 5878 5877 5877 5876 5875 5875 5875 5874 5874 5874 5873 5873 5874 5874 5875 5875 5875
5902 5903 5904 5905 5905 5907 5907 5905 5904 5903 5902 5901 5900 5900 5898 5897 5896 5894 5893 5892 5890 5889 5888 5887 5886 5885 5884 5883 5882 5881 5880 5879 5878 5878 5877 5876 5876 5875 5875 5874 5874 5874 5873 5874 5874 5875 5875 5875 5875
5901 5903 5904 5906 5906 5907 5906 5905 5904 5903 5902 5901 5900 5900 5898 5897 5896 5895 5893 5892 5890 5889 5888 5887 5886 5885 5884 5883 5882 5881 5880 5879 5878 5878 5877 5876 5876 5875 5875 5875 5875 5874 5874 5874 5875 5875 5875 5875 5876
5900 5902 5904 5905 5906 5906 5906 5904 5904 5903 5902 5901 5900 5899 5898 5897 5896 5895 5893 5892 5891 5890 5888 5887 5886 5885 5884 5883 5882 5881 5880 5879 5878 5878 5877 5877 5876 5876 5875 5875 5875 5875 5875 5875 5875 5875 5875 5876 5876
5899 5901 5903 5904 5906 5906 5906 5904 5903 5903 5901 5901 5900 5899 5898 5897 5896 5895 5893 5892 5891 5890 5888 5887 5886 5886 5884 5883 5882 5881 5880 5879 5878 5878 5877 5877 5877 5876 5876 5875 5875 5875 5875 5875 5875 5875 5875 5876 5876
5898 5900 5901 5904 5905 5905 5904 5903 5903 5902 5901 5900 5899 5898 5897 5897 5896 5895 5893 5892 5891 5890 5889 5887 5886 5885 5884 5883 5882 5881 5880 5879 5878 5878 5878 5877 5876 5876 5876 5876 5876 5876 5875 5875 5875 5875 5875 5875 5876
5896 5899 5900 5902 5904 5904 5903 5902 5902 5901 5900 5899 5898 5898 5897 5896 5895 5894 5893 5892 5891 5889 5888 5887 5886 5885 5884 5883 5882 5881 5880 5880 5879 5878 5877 5877 5876 5876 5876 5876 5876 5875 5875 5875 5875 5875 5875 5875 5875
5894 5898 5899 5901 5902 5902 5901 5901 5900 5899 5899 5898 5898 5897 5896 5896 5895 5894 5893 5891 5890 5889 5888 5886 5885 5885 5884 5883 5882 5881 5880 5879 5879 5878 5877 5877 5877 5876 5876 5876 5875 5875 5875 5875 5875 5875 5875 5875 5875
5892 5895 5897 5898 5899 5898 5898 5899 5899 5898 5898 5897 5897 5896 5895 5895 5894 5893 5892 5891 5889 5888 5887 5886 5885 5884 5883 5882 5882 5881 5880 5879 5879 5878 5878 5877 5877 5876 5876 5875 5875 5875 5875 5875 5875 5875 5875 5875 5875
5890 5892 5894 5895 5896 5896 5896 5897 5897 5897 5896 5895 5895 5894 5894 5893 5893 5892 5891 5890 5889 5887 5886 5885 5884 5884 5883 5882 5881 5881 5880 5879 5879 5878 5877 5877 5876 5876 5875 5875 5875 5874 5874 5874 5874 5874 5874 5874 5874
5887 5889 5891 5892 5893 5893 5894 5894 5895 5895 5895 5894 5893 5893 5892 5892 5892 5891 5890 5889 5888 5887 5886 5885 5884 5883 5883 5882 5881 5880 5880 5879 5878 5877 5877 5876 5876 5875 5875 5874 5874 5874 5874 5874 5874 5874 5874 5874 5874
5884 5886 5888 5889 5889 5890 5891 5892 5892 5892 5892 5892 5891 5891 5891 5891 5890 5890 5889 5888 5887 5886 5886 5885 5884 5883 5882 5882 5881 5880 5879 5878 5877 5876 5876 5875 5875 5874 5874 5873 5873 5873 5873 5873 5873 5873 5873 5873 5873
5882 5884 5885 5886 5887 5887 5888 5889 5889 5889 5890 5890 5889 5889 5890 5889 5889 5888 5888 5887 5886 5885 5885 5884 5883 5883 5882 5881 5880 5879 5878 5878 5877 5876 5875 5874 5873 5873 5872 5872 5872 5872 5872 5872 5872 5872 5872 5872 5872
5878 5880 5882 5883 5884 5885 5886 5887 5887 5886 5887 5887 5887 5887 5887 5887 5886 5886 5886 5885 5884 5884 5884 5883 5882 5882 5881 5880 5879 5878 5878 5877 5876 5875 5874 5873 5872 5871 5871 5871 5871 5870 5870 5870 5870 5871 5871 5871 5871
5876 5878 5879 5881 5881 5882 5884 5884 5884 5884 5884 5884 5884 5885 5885 5884 5884 5883 5883 5882 5882 5882 5882 5882 5881 5881 5880 5879 5878 5877 5876 5875 5875 5874 5873 5872 5871 5870 5870 5870 5869 5869 5869 5869 5869 5870 5870 5870 5870
5873 5875 5877 5879 5879 5880 5880 5881 5881 5881 5881 5881 5881 5881 5882 5882 5882 5881 5881 5880 5881 5881 5880 5880 5880 5880 5879 5878 5877 5876 5875 5874 5873 5872 5871 5870 5869 5868 5868 5868 5868 5868 5868 5868 5868 5868 5868 5868 5868
5871 5874 5875 5876 5877 5877 5877 5878 5878 5878 5877 5877 5878 5878 5879 5879 5880 5879 5879 5877 5879 5879 5879 5879 5878 5878 5877 5877 5876 5874 5873 5872 5871 5871 5870 5869 5868 5867 5866 5866 5866 5866 5866 5866 5866 5866 5866 5866 5866
5867 5870 5872 5873 5874 5874 5874 5874 5875 5874 5874 5873 5874 5875 5876 5876 5877 5877 5876 5876 5877 5877 5877 5877 5877 5876 5876 5875 5874 5872 5871 5870 5870 5869 5868 5867 5866 5865 5865 5864 5864 5864 5864 5865 5865 5865 5864 5865 5865
5864 5866 5868 5870 5870 5870 5870 5871 5871 5871 5871 5870 5871 5872 5872 5873 5873 5874 5874 5874 5874 5874 5874 5875 5874 5874 5873 5873 5871 5870 5869 5868 5868 5867 5866 5865 5864 5864 5863 5863 5862 5862 5862 5862 5862 5862 5862 5862 5863
5860 5862 5863 5865 5866 5866 5867 5867 5866 5867 5868 5867 5867 5869 5869 5869 5870 5871 5871 5871 5871 5871 5872 5872 5871 5871 5870 5870 5869 5868 5867 5866 5865 5865 5864 5863 5862 5862 5861 5860 5860 5860 5860 5860 5860 5860 5860 5860 5861
5856 5858 5859 5860 5861 5862 5864 5863 5863 5862 5863 5864 5864 5865 5865 5865 5867 5867 5867 5867 5868 5868 5868 5868 5868 5868 5867 5867 5866 5865 5864 5863 5863 5862 5862 5861 5860 5860 5859 5858 5858 5858 5858 5857 5857 5857 5858 5858 5858
5851 5853 5854 5855 5857 5857 5859 5860 5861 5859 5859 5859 5859 5861 5861 5861 5862 5864 5864 5864 5864 5864 5865 5865 5865 5864 5864 5864 5863 5862 5862 5861 5860 5860 5859 5858 5858 5857 5856 5856 5856 5856 5855 5855 5855 5855 5855 5856 5856
5846 5848 5850 5850 5851 5852 5854 5855 5855 5854 5854 5855 5855 5856 5857 5858 5858 5860 5860 5860 5860 5860 5860 5861 5861 5861 5861 5860 5860 5859 5859 5858 5857 5857 5856 5856 5855 5854 5854 5854 5853 5853 5853 5853 5853 5853 5853 5853 5853
5841 5844 5845 5846 5846 5847 5850 5849 5849 5850 5851 5852 5852 5853 5854 5854 5854 5855 5856 5856 5855 5856 5857 5857 5857 5857 5857 5857 5857 5856 5856 5855 5855 5854 5853 5853 5852 5852 5851 5851 5851 5850 5850 5851 5851 5851 5851 5851 5851
5836 5838 5841 5842 5843 5844 5846 5845 5846 5847 5847 5847 5849 5849 5849 5850 5850 5851 5852 5852 5851 5852 5853 5853 5853 5853 5853 5853 5853 5853 5852 5852 5852 5851 5851 5850 5850 5849 5849 5848 5848 5848 5848 5848 5848 5849 5848 5848 5848
5831 5833 5836 5838 5839 5840 5840 5842 5842 5841 5841 5842 5843 5844 5845 5845 5845 5846 5847 5847 5848 5848 5848 5849 5849 5849 5850 5850 5849 5849 5849 5849 5849 5848 5848 5847 5847 5846 5846 5845 5845 5845 5845 5845 5845 5845 5845 5845 5845
5827 5829 5831 5832 5833 5835 5837 5837 5838 5837 5836 5837 5838 5839 5839 5840 5840 5838 5840 5841 5843 5844 5844 5844 5844 5845 5846 5846 5846 5846 5846 5845 5845 5845 5845 5844 5844 5843 5843 5842 5842 5842 5842 5842 5842 5842 5842 5842 5841
5821 5823 5824 5826 5828 5830 5832 5835 5832 5831 5831 5832 5833 5833 5834 5836 5836 5835 5836 5837 5838 5840 5840 5840 5840 5841 5842 5842 5842 5842 5842 5842 5841 5841 5841 5841 5841 5840 5840 5839 5839 5839 5838 5838 5838 5838 5838 5838 5837
5815 5817 5819 5820 5821 5823 5825 5829 5826 5826 5826 5827 5827 5828 5829 5830 5831 5831 5832 5832 5833 5834 5835 5835 5836 5836 5837 5838 5838 5838 5838 5838 5838 5838 5838 5837 5837 5837 5836 5836 5835 5835 5834 5834 5834 5834 5834 5833 5833